Theta_e
313 312 312 313 316 318 319 318 319 320 319 321 320 318 318 319 321 319 318 318 318 331 342 344 341 341 348 349 349 350 350 353 357 357 351 348 348 349 348 342 339 337 332 329 329 329 329 330 332 334 335 336 336 336 336 334 330 330 332 332 332 330 327 326 325 324 323 321 320 320 319 318 318 318 319 321 322 323 324 326 324 322 320 317 316 315 315 315 314 315 314 314 314 315 317 321 325
313 312 312 317 318 319 319 318 320 319 317 318 317 316 318 318 320 318 319 318 319 339 347 345 346 345 347 348 347 349 351 349 348 350 348 348 349 348 347 343 341 337 332 330 330 330 329 329 331 333 335 336 336 336 336 335 331 330 331 332 332 331 328 326 326 325 324 322 320 322 323 323 324 323 323 324 325 326 327 327 323 318 319 318 317 316 315 315 314 313 313 314 315 317 320 324 328
312 312 314 319 319 319 320 318 321 319 317 317 315 316 317 317 319 317 320 317 321 341 347 345 347 346 346 348 347 351 352 347 346 347 346 348 348 346 345 344 340 336 333 331 331 331 330 329 330 332 334 335 336 336 336 335 332 330 331 332 332 332 329 327 326 326 325 323 321 322 323 325 326 326 326 324 324 324 322 323 321 318 319 319 318 316 315 315 314 313 312 313 315 318 322 327 329
313 315 316 321 319 318 321 321 323 321 318 317 316 318 318 318 320 318 319 318 323 340 347 347 349 347 346 348 348 350 350 348 348 348 347 348 349 347 345 343 337 334 333 331 332 332 329 328 329 331 333 335 336 336 336 336 332 330 331 333 333 333 330 327 326 326 326 325 323 324 325 326 326 327 327 325 324 323 321 320 320 320 318 318 319 317 316 314 314 313 312 313 314 318 324 328 330
316 318 320 323 320 318 321 323 324 321 317 317 318 319 320 320 320 320 320 322 326 339 347 347 349 348 347 348 348 349 350 349 348 348 348 348 349 347 345 340 335 333 332 332 333 331 329 327 327 329 332 334 336 336 336 336 333 329 331 332 333 334 332 326 325 326 326 325 324 325 327 327 328 328 327 326 325 323 322 320 318 318 318 317 318 318 317 315 314 313 312 313 313 317 324 329 331
318 321 322 323 322 318 318 320 321 320 317 319 320 319 321 320 322 321 320 326 334 343 345 346 348 348 348 348 348 348 350 350 348 348 348 348 348 347 344 338 334 332 332 333 333 331 328 326 326 328 331 333 335 335 336 335 333 329 330 332 333 334 332 326 324 325 324 325 324 325 327 328 329 328 327 325 324 323 322 320 318 318 317 317 318 318 317 316 315 313 313 313 313 316 322 328 331
319 321 322 322 322 318 319 322 320 320 319 320 320 320 322 320 322 320 320 325 337 347 344 346 347 349 350 348 349 349 349 350 349 348 348 348 347 346 343 339 334 332 333 333 334 332 328 326 326 327 330 333 334 335 335 335 333 329 331 332 333 334 332 325 322 321 321 324 324 325 326 327 327 326 324 324 322 321 320 319 318 317 317 316 317 317 317 317 316 314 313 313 314 316 320 325 330
320 319 317 319 320 317 320 322 319 319 320 320 320 320 321 321 321 320 321 319 332 346 346 347 346 350 351 348 350 349 349 350 349 348 348 348 345 344 342 339 334 332 334 334 334 332 327 326 326 327 329 332 334 335 336 335 332 330 332 332 333 334 328 322 320 319 319 321 322 324 325 325 325 323 323 322 320 320 319 318 317 317 316 316 316 316 317 317 317 315 313 314 315 315 319 324 329
318 317 315 317 319 316 318 319 317 317 319 319 319 320 321 322 321 319 320 320 332 344 346 346 343 351 350 349 349 349 349 349 348 348 348 348 346 344 341 338 334 333 334 334 334 331 327 326 326 327 329 332 334 334 335 334 331 331 332 332 333 330 323 320 320 319 318 319 322 326 328 328 326 324 322 320 319 320 319 318 317 316 316 317 317 317 318 318 318 317 315 314 315 316 318 323 329
316 315 315 317 318 316 315 315 315 315 316 317 317 318 319 319 320 318 318 323 334 344 346 344 343 350 350 349 349 348 349 348 348 347 347 347 345 343 338 335 334 334 334 334 334 331 328 327 327 327 329 330 332 333 334 333 331 331 332 333 331 325 321 321 321 319 318 321 327 331 331 331 330 328 326 324 323 322 321 320 318 317 317 316 317 318 319 319 319 319 317 315 315 316 316 320 329
315 313 314 317 318 317 317 315 314 314 315 314 315 316 317 318 317 318 317 322 338 347 346 345 348 349 348 349 349 348 348 348 348 345 345 345 343 340 336 334 334 334 335 335 334 331 329 327 327 326 327 328 330 333 333 332 331 332 332 331 326 322 321 323 322 321 322 326 331 332 332 332 332 331 331 329 327 324 323 322 321 321 320 318 321 325 324 321 320 320 319 317 315 316 316 320 329
315 315 315 318 320 319 317 316 315 317 316 316 317 316 317 317 317 319 317 322 337 345 345 346 349 349 348 349 349 348 347 346 346 344 345 345 342 340 338 337 334 335 335 335 334 331 330 328 327 327 327 328 330 332 332 332 331 332 331 327 323 321 323 325 325 326 327 330 331 331 332 332 333 333 332 330 326 324 324 324 324 324 323 322 325 329 327 323 323 320 318 318 316 316 317 320 327
314 314 315 318 320 319 317 316 317 318 317 317 316 317 318 316 318 319 322 331 337 342 344 344 346 348 349 349 349 348 348 346 345 345 345 345 343 341 341 338 335 335 335 335 334 333 331 330 328 327 328 329 330 331 332 331 332 331 328 324 322 323 325 327 329 329 330 331 331 331 331 332 333 334 332 330 326 324 327 328 326 323 323 322 324 327 326 324 324 321 317 317 316 316 316 318 324
315 314 314 316 317 317 315 315 316 316 315 315 315 318 320 318 321 322 332 343 344 346 347 344 344 348 349 349 348 347 347 347 345 345 345 346 345 343 342 338 335 335 335 335 334 333 332 331 329 329 332 332 330 331 332 332 331 328 325 323 324 325 326 329 331 331 332 332 332 332 332 332 333 333 331 329 326 326 329 330 327 322 321 320 320 321 322 323 322 320 318 316 316 316 316 316 321
316 315 315 316 316 315 314 314 315 314 315 316 316 319 320 320 326 331 338 343 345 348 346 344 343 348 350 349 349 345 346 348 347 346 346 346 345 345 342 337 335 335 335 335 334 333 331 331 330 331 332 332 331 331 332 333 330 327 324 324 325 327 328 331 332 332 332 333 333 333 333 333 333 332 329 327 327 326 329 330 328 324 322 320 318 317 317 318 318 320 319 317 316 315 316 315 317
316 315 315 316 316 315 315 315 315 315 316 317 317 319 320 322 329 334 338 339 342 344 342 341 338 345 349 348 348 345 346 348 347 347 346 346 345 345 343 337 335 336 335 334 333 332 331 331 331 331 331 331 332 331 331 332 329 327 325 325 327 328 330 332 333 332 333 333 334 333 333 333 332 330 327 326 326 327 329 330 328 327 326 324 320 319 317 316 317 318 319 319 317 315 316 316 316
317 314 314 315 315 314 315 316 315 316 317 316 317 318 320 326 333 337 338 339 342 342 342 343 341 345 348 348 347 346 348 348 347 346 346 346 345 345 343 337 335 335 334 334 333 331 331 331 331 331 330 331 332 332 331 330 330 329 325 325 328 329 331 332 333 332 332 333 333 333 333 332 329 328 326 327 327 327 329 329 328 327 328 327 324 321 320 319 317 317 318 319 319 317 317 317 317
317 315 314 314 314 313 314 316 316 316 316 316 316 318 320 326 333 339 339 341 344 346 347 347 346 348 348 348 348 347 348 348 347 346 345 345 344 344 342 336 335 334 334 334 332 332 332 332 332 332 331 331 331 332 331 329 330 329 325 327 329 330 332 332 332 332 332 332 333 333 332 329 327 326 326 327 327 328 328 328 328 328 328 328 327 324 321 321 319 317 317 317 319 319 320 319 319
316 315 315 313 314 314 314 315 315 315 315 316 315 317 321 324 328 337 341 343 347 349 349 348 348 348 348 348 347 348 348 347 347 345 344 344 343 343 341 337 335 335 335 334 333 333 333 332 332 332 332 331 331 332 332 331 330 328 327 329 331 331 332 332 332 332 332 332 333 332 329 327 326 326 327 328 329 329 329 328 328 327 327 327 328 326 323 322 321 318 317 317 319 320 320 320 321
316 315 314 314 314 313 314 315 315 316 315 315 316 316 319 319 323 336 341 343 348 350 349 348 349 347 346 346 347 348 347 347 347 344 343 343 342 342 341 339 337 336 335 334 333 333 333 333 332 332 332 332 331 332 332 332 331 329 329 331 331 332 332 332 332 332 332 333 332 330 327 327 327 328 330 331 331 330 329 328 326 326 326 326 327 327 324 323 322 321 319 318 320 322 321 321 322
315 314 315 314 313 314 314 315 315 316 316 316 315 316 319 316 322 336 341 345 347 348 348 347 348 347 345 346 347 348 347 348 346 344 343 342 341 341 340 339 338 336 335 334 333 333 333 333 332 332 332 333 332 333 332 332 332 331 330 331 331 332 331 332 332 331 332 333 330 328 327 327 328 329 330 331 330 329 329 327 326 326 326 326 327 328 326 324 323 322 322 322 323 325 325 325 325
315 314 313 313 313 314 314 315 316 316 317 316 315 317 318 316 318 328 336 343 347 347 347 345 347 348 346 347 348 347 347 346 346 344 343 341 341 340 339 339 338 337 335 334 333 333 333 332 332 332 332 333 332 332 332 332 333 332 331 331 330 331 331 331 331 330 332 331 327 327 328 328 329 329 328 329 329 329 329 328 327 327 327 326 327 328 327 325 323 322 324 326 327 328 329 329 328
315 314 313 313 313 314 315 316 316 317 316 315 316 317 318 317 317 321 329 337 343 347 347 346 347 348 347 347 347 347 346 345 346 344 343 342 340 340 340 340 340 338 336 334 333 333 333 332 332 332 332 331 331 332 333 333 333 332 331 330 330 330 330 331 331 331 331 329 326 327 328 328 328 328 328 328 328 329 329 329 328 328 327 326 326 327 328 327 326 323 324 326 328 330 330 330 330
315 314 313 313 313 313 314 316 316 317 316 315 317 317 317 317 317 324 330 335 344 347 347 348 348 348 346 347 347 347 345 344 345 343 343 342 341 341 341 341 341 339 337 335 335 336 334 333 332 332 331 331 332 333 333 333 333 331 330 330 330 330 330 331 331 331 330 327 325 326 327 327 327 327 328 328 328 329 329 328 327 327 327 327 327 327 328 328 328 327 327 327 328 330 330 330 330
314 314 313 314 314 314 314 315 316 316 316 317 318 317 318 317 317 326 333 339 347 348 348 348 347 347 346 346 346 346 345 344 343 342 342 341 341 341 341 341 341 340 339 338 337 338 336 334 332 332 332 332 333 333 333 333 332 331 330 329 329 330 331 332 331 330 329 326 325 326 326 327 327 326 327 328 329 329 328 327 327 327 327 327 327 326 327 328 328 328 328 328 328 329 329 330 330
315 314 313 313 313 314 314 315 316 316 317 317 317 317 317 317 317 323 334 344 348 348 348 348 347 347 345 344 344 344 344 343 342 342 342 341 341 341 341 341 340 340 340 339 339 338 337 335 333 333 333 333 333 333 333 332 331 330 329 329 329 330 331 330 330 328 327 326 326 326 327 327 326 326 326 328 329 328 328 328 327 327 327 327 326 326 327 327 328 326 326 327 326 327 328 329 329
314 313 313 313 313 314 314 314 316 315 316 316 317 317 317 317 316 320 331 345 348 348 348 347 347 346 344 343 343 344 344 342 342 342 341 341 342 341 341 341 340 340 339 340 339 338 337 335 334 334 334 334 333 333 332 331 331 329 329 330 330 330 329 328 327 327 326 327 327 327 328 327 325 325 326 327 329 329 328 328 327 327 326 326 326 326 326 327 327 326 326 326 325 326 327 328 328
313 313 312 312 312 313 314 314 315 315 316 316 317 317 316 316 316 319 330 343 347 347 347 347 347 346 344 342 343 344 342 341 341 341 341 341 341 341 341 341 340 339 339 339 339 338 337 335 335 335 334 334 333 333 332 330 330 329 329 330 330 329 329 328 327 327 327 326 327 328 328 328 326 325 325 327 329 329 328 328 328 327 327 326 325 325 325 326 326 326 326 326 326 326 327 328 327
313 313 312 313 313 313 314 314 314 315 315 316 317 316 317 317 316 320 329 340 346 347 347 347 346 345 343 342 342 343 341 340 340 339 340 340 340 341 340 340 339 339 339 339 339 337 337 336 335 336 335 334 333 332 331 330 330 330 330 330 329 329 329 328 327 327 327 326 326 327 327 328 327 327 326 327 329 329 329 329 329 328 327 326 326 325 324 324 325 326 326 325 326 326 327 327 326
314 314 313 313 314 314 315 314 315 315 316 317 317 316 319 319 315 317 326 336 345 346 345 345 345 345 342 341 342 342 341 340 340 339 339 339 339 340 340 340 339 339 339 339 338 337 336 336 336 336 335 334 332 332 331 330 329 329 330 330 329 328 328 328 328 327 327 326 327 327 327 327 328 328 327 327 329 330 330 329 329 328 327 327 326 325 323 324 325 326 326 326 327 327 327 326 325
315 314 315 314 313 317 317 315 315 316 316 317 316 316 319 320 316 316 322 332 343 344 344 344 343 344 342 342 342 341 341 340 340 340 339 339 338 339 340 339 339 338 339 339 337 336 336 336 336 335 334 332 331 331 331 329 329 329 329 329 328 328 327 327 327 326 326 326 327 328 327 327 328 328 327 327 329 330 330 329 328 328 327 327 326 324 323 324 325 326 326 326 327 328 327 326 325
315 314 318 317 312 317 317 314 315 316 316 315 315 316 318 318 317 316 319 327 339 342 342 343 342 343 342 342 342 341 341 340 340 340 340 340 339 339 339 338 339 338 338 337 335 336 337 337 336 335 333 330 329 331 331 329 329 328 328 328 328 327 327 328 328 327 327 327 328 328 328 328 328 329 328 328 329 330 329 328 329 328 328 327 327 325 325 325 325 326 326 326 327 327 326 327 327
319 315 319 319 314 316 316 314 315 315 316 315 315 317 318 318 316 316 317 320 333 341 340 342 341 342 342 340 340 340 340 340 340 341 340 340 338 338 339 338 338 337 336 336 336 336 337 337 335 334 332 329 328 330 330 329 329 328 327 327 326 327 327 328 329 328 328 328 328 328 328 328 328 329 329 329 330 329 328 328 329 328 328 328 328 326 326 326 326 326 325 325 326 327 326 327 327
319 316 317 318 315 314 314 315 315 314 316 315 314 316 318 321 317 315 315 317 330 339 339 341 341 341 341 339 338 339 340 340 341 341 339 339 339 338 338 338 338 337 336 335 334 335 336 336 335 334 332 330 328 328 329 329 328 327 326 326 326 328 328 329 329 329 328 328 328 327 327 327 326 327 327 327 328 327 328 329 329 329 328 328 328 327 326 326 326 325 326 326 326 326 326 327 327
317 317 318 318 315 314 313 314 314 314 316 315 315 315 316 320 317 315 315 316 330 338 339 340 340 340 340 339 339 339 339 340 341 340 339 339 339 338 338 338 338 337 335 334 333 333 334 334 334 334 333 331 328 326 328 328 327 326 327 328 329 329 329 329 329 328 328 327 328 327 326 326 326 326 325 325 326 327 328 329 328 328 328 328 328 327 327 326 326 326 327 326 325 325 326 326 326
316 316 317 317 314 314 313 313 314 314 314 314 315 315 315 316 316 316 315 313 326 336 338 339 339 340 340 340 340 340 340 341 340 340 340 340 339 338 338 338 338 337 334 334 334 333 332 332 333 334 333 331 328 327 327 327 328 328 328 329 329 329 328 328 328 327 326 325 326 325 323 322 324 325 324 324 325 326 327 328 327 327 327 327 327 327 326 327 327 327 326 325 325 325 325 325 325
314 314 314 314 313 313 314 313 314 313 314 315 315 315 315 315 316 317 314 316 329 335 336 338 340 341 340 341 341 341 341 340 340 341 341 340 339 338 339 338 337 336 334 334 333 332 331 331 332 333 333 331 329 328 327 329 330 328 329 329 329 328 328 328 327 327 325 323 323 322 318 317 318 320 322 323 323 324 325 326 326 327 327 327 327 326 326 327 327 327 325 325 325 324 324 324 326
315 314 314 314 313 313 314 314 315 314 314 315 315 314 314 314 316 316 313 320 334 336 336 339 340 341 341 341 341 340 341 340 340 341 340 340 339 339 339 337 335 336 334 332 331 330 330 331 332 332 332 331 330 330 329 330 330 329 329 329 329 328 328 327 325 325 323 319 318 317 315 316 317 319 321 322 323 324 325 325 325 326 326 327 327 326 326 327 327 327 326 325 324 324 324 325 326
316 315 314 315 314 314 315 318 318 316 316 317 315 313 314 315 316 317 314 318 332 336 336 339 340 341 341 340 340 340 341 340 340 339 338 339 339 339 339 337 336 335 332 329 329 330 330 331 332 332 331 331 331 331 330 330 330 330 330 329 329 329 328 328 326 325 324 319 315 314 315 316 317 317 319 321 324 324 324 324 324 324 325 326 327 327 327 327 327 327 326 326 325 325 325 326 327
318 317 316 315 315 314 316 320 319 317 317 317 316 314 315 315 314 317 314 314 330 338 336 339 340 341 341 340 340 342 340 338 338 338 338 339 339 339 339 337 336 334 330 329 330 330 330 330 331 331 330 330 330 330 330 330 330 331 330 329 329 329 329 329 328 326 327 324 318 316 317 317 317 317 317 319 321 321 321 322 323 324 324 325 325 325 326 327 327 327 326 326 326 326 326 326 327
320 320 317 314 314 315 317 320 320 320 322 321 317 312 315 321 318 317 317 318 331 338 337 339 341 340 341 339 339 340 338 336 336 337 338 339 339 339 338 337 336 334 331 331 331 329 329 329 330 330 328 328 329 329 329 329 330 331 330 330 330 330 329 329 329 328 328 326 320 318 320 321 322 320 318 319 318 316 318 319 321 323 323 323 323 324 326 325 326 326 326 325 326 326 326 326 326
319 322 320 317 317 319 319 319 319 319 322 324 318 310 317 331 327 318 321 324 330 337 338 338 340 340 340 338 337 337 335 335 335 336 338 338 338 338 337 336 336 335 334 333 332 329 328 328 329 329 326 325 327 328 329 328 328 329 329 329 329 329 329 329 329 325 323 322 318 320 323 323 324 322 321 322 317 314 317 318 319 323 324 324 324 324 325 325 324 325 325 325 326 326 326 326 326
319 325 326 319 318 320 320 319 317 317 320 324 323 318 321 330 330 324 324 323 326 333 337 337 339 340 338 337 336 336 334 335 335 335 337 337 337 338 337 336 336 336 335 334 332 329 328 328 327 326 324 324 326 328 327 324 325 326 327 327 326 326 328 327 323 318 317 317 317 323 325 324 325 324 323 322 315 313 319 319 319 321 322 323 325 325 325 325 325 325 325 325 326 326 326 327 326
321 331 327 319 318 319 320 318 315 318 322 324 329 329 323 324 329 329 324 320 325 331 333 336 339 338 337 336 334 335 335 335 335 335 336 336 336 336 335 336 336 335 335 333 332 330 328 328 325 323 324 324 325 327 325 321 322 324 326 325 324 325 326 321 317 318 320 318 317 321 323 323 324 322 320 318 314 315 321 322 321 321 321 321 323 324 324 325 325 325 325 324 324 325 325 326 326
325 332 323 318 318 318 319 317 315 319 320 322 331 329 320 326 337 332 323 321 326 332 336 337 339 337 335 335 334 335 335 335 335 334 335 336 336 335 333 334 335 334 334 333 331 330 328 328 326 324 324 323 324 326 322 319 321 322 324 324 325 328 324 317 317 321 322 321 320 319 320 322 323 320 319 319 320 322 322 322 322 322 322 322 321 320 320 320 321 323 323 322 323 325 325 325 325
324 324 319 318 317 317 317 314 315 318 317 320 332 328 317 327 343 335 324 322 326 333 338 337 337 336 334 334 334 335 335 335 334 333 334 334 334 333 332 333 334 333 333 332 331 329 327 327 327 324 323 322 324 324 319 318 322 323 324 325 327 328 321 316 319 322 322 322 321 319 320 322 322 321 322 323 323 324 324 322 322 323 323 323 320 317 318 319 319 321 322 322 323 324 324 324 324
319 319 316 314 316 317 318 319 318 317 319 326 334 329 317 323 337 334 325 323 329 335 338 336 336 334 333 334 334 335 335 335 335 334 333 330 330 331 333 333 334 334 332 331 331 329 326 327 328 325 323 323 325 322 320 323 326 327 327 328 328 324 316 315 319 321 322 321 319 319 321 322 322 322 322 322 322 323 324 323 322 323 323 323 320 318 319 320 320 321 321 321 322 323 324 324 324
315 317 315 315 322 323 322 323 316 314 325 334 333 326 318 320 329 331 328 327 332 336 337 336 335 333 332 333 333 334 335 336 336 333 330 329 329 329 332 333 333 333 332 331 330 329 326 327 328 325 323 325 325 323 325 329 329 327 329 329 324 317 313 314 315 316 318 317 317 321 323 322 323 323 322 321 320 320 323 323 322 322 323 322 320 318 318 319 319 319 320 319 321 322 324 324 323
313 316 315 315 320 321 324 327 320 319 327 331 329 322 318 324 327 326 328 328 330 335 336 335 333 332 332 332 332 334 335 335 333 329 327 327 327 328 332 333 332 332 331 330 329 327 326 328 328 324 324 325 324 325 328 330 328 328 329 326 318 314 315 314 312 312 312 313 318 323 323 321 322 323 323 321 320 320 321 323 322 322 322 321 318 315 316 318 319 319 320 320 321 323 323 323 323
313 315 316 317 320 319 322 326 322 321 322 323 327 319 317 329 330 325 327 329 331 334 334 333 332 331 332 332 332 333 332 331 328 326 326 326 327 330 332 331 330 331 331 329 328 328 328 330 328 324 323 323 323 326 328 327 328 328 325 319 316 316 317 314 310 309 309 312 318 322 321 320 320 322 323 322 321 320 320 321 322 322 321 318 313 312 314 317 318 319 320 322 323 323 323 323 323
317 316 316 319 326 324 322 324 323 321 322 324 323 316 319 332 334 328 328 329 331 333 333 333 332 331 331 330 330 330 328 327 327 327 326 325 328 331 331 330 330 330 330 329 328 329 329 329 327 324 322 322 322 325 327 327 326 322 318 319 320 321 318 313 309 308 308 312 318 320 320 319 318 317 319 321 320 320 319 320 321 321 318 314 311 310 311 314 316 318 321 323 322 322 322 322 322
318 318 316 316 324 327 324 326 329 326 325 324 320 320 324 330 331 329 329 330 331 332 332 331 331 331 331 330 329 329 328 328 328 327 326 326 328 330 330 330 330 330 330 329 328 327 327 326 325 324 323 324 325 327 328 325 321 318 320 323 325 324 320 312 309 308 309 314 319 321 321 319 316 311 311 314 316 316 316 316 318 319 316 313 310 308 308 310 311 315 320 323 321 320 320 320 320
323 317 316 317 320 324 322 323 326 325 322 323 326 327 326 327 329 328 329 332 332 332 331 331 331 331 331 330 329 328 328 328 328 326 326 327 329 329 329 328 330 330 330 330 327 325 325 324 324 324 325 325 325 327 326 321 319 321 324 326 325 324 318 310 309 310 312 318 322 322 322 320 317 312 308 308 310 310 309 310 314 315 314 312 310 306 305 306 307 309 315 319 319 318 318 318 318
323 316 317 318 316 321 327 327 326 322 321 327 330 328 326 330 331 328 329 333 332 332 331 330 331 330 330 330 329 328 328 328 328 327 327 328 328 329 329 329 330 331 331 330 328 325 323 323 322 323 325 325 324 324 322 319 322 326 326 325 325 323 316 310 310 312 315 320 322 322 322 321 319 315 309 305 306 306 305 307 309 311 312 312 309 306 305 305 305 305 308 311 311 312 312 312 313
316 316 318 319 320 324 326 326 325 323 322 323 325 327 328 330 330 327 330 333 333 332 330 330 330 329 329 330 329 329 328 328 328 328 329 329 329 330 330 330 331 332 332 332 330 327 324 323 323 323 324 324 322 322 319 319 325 327 325 325 325 321 315 311 311 312 317 320 320 321 322 321 319 316 310 305 306 306 305 306 307 309 310 310 307 305 304 304 304 304 305 305 306 306 306 306 306
318 319 318 322 330 332 325 322 326 329 327 322 323 328 330 330 329 328 329 330 331 331 330 330 329 328 329 330 329 329 328 328 329 329 329 330 330 330 331 331 331 332 333 333 332 330 327 325 324 324 324 323 322 322 320 322 327 327 325 326 325 319 313 311 311 313 318 320 318 320 322 320 319 316 309 305 306 306 306 305 306 306 306 306 305 304 304 304 304 305 305 305 306 307 307 307 306
320 320 320 320 324 324 322 322 324 328 331 329 326 325 327 329 327 326 328 328 328 330 330 329 329 328 329 329 329 329 328 328 329 329 329 329 329 330 330 330 331 331 332 332 332 331 329 328 326 325 324 323 322 321 320 325 328 327 327 326 323 317 311 311 315 317 319 319 317 320 321 320 319 315 308 305 305 305 305 305 305 305 304 304 304 304 305 306 307 307 308 308 309 309 310 310 309
318 320 322 321 322 322 321 323 323 327 333 332 330 328 326 326 325 324 327 326 325 327 329 328 329 328 328 328 328 328 328 328 329 329 329 329 328 329 329 330 331 331 331 331 331 331 330 329 328 326 324 323 324 323 323 327 328 327 327 324 319 317 313 315 321 321 319 317 316 320 321 319 319 314 306 304 305 304 305 306 305 304 304 305 305 306 308 308 309 309 309 310 309 310 310 310 310
Wind_Speed
9 9 10 9 8 6 2 3 1 2 1 2 4 2 4 6 4 6 8 7 5 5 7 15 15 15 15 15 19 16 12 2 3 4 5 13 24 28 26 27 27 26 28 28 27 25 24 24 25 25 25 25 25 24 23 22 21 21 20 18 17 16 16 16 16 17 18 19 19 19 19 18 17 16 15 14 13 12 12 12 12 11 11 12 12 12 12 13 15 17 18 18 20 21 21 21 21
11 12 11 9 7 5 2 3 1 1 1 4 4 3 4 4 3 7 8 7 3 5 12 25 27 24 24 23 20 16 15 9 11 16 18 25 31 27 26 27 25 26 28 28 27 25 24 23 24 25 25 25 25 24 23 22 22 21 19 18 16 16 15 14 15 15 16 17 18 18 18 17 16 15 15 14 12 12 11 10 10 10 10 11 11 11 12 12 15 17 18 19 20 21 21 21 22
13 12 11 8 6 3 2 2 1 2 1 5 4 4 4 3 6 10 10 15 9 12 9 18 19 13 15 15 13 10 8 13 22 26 25 29 31 28 28 27 26 27 27 28 26 24 23 23 23 24 24 25 25 24 24 23 22 21 19 18 16 16 14 14 14 14 15 15 16 17 17 16 15 15 14 13 12 11 11 10 9 9 9 10 10 10 11 12 15 16 17 19 20 21 21 22 22
13 11 9 6 4 2 2 2 2 3 3 4 4 5 5 5 10 10 13 22 14 17 6 9 10 9 14 14 12 12 10 14 22 27 28 28 28 29 30 27 28 28 28 28 26 24 23 22 23 23 24 24 24 24 24 23 21 21 19 17 15 15 14 13 13 13 14 14 15 15 15 15 14 14 13 12 11 11 10 9 8 9 9 9 10 10 10 12 14 15 16 18 20 20 21 22 22
11 9 7 5 4 1 1 1 2 3 5 3 3 5 4 4 8 10 15 14 11 21 11 10 6 9 17 12 7 9 15 18 18 25 30 27 26 28 29 28 29 29 28 27 25 24 23 22 23 23 23 23 24 24 23 23 21 20 19 17 15 15 13 12 12 12 13 14 14 14 14 13 13 12 11 11 10 10 10 9 8 8 8 8 9 9 9 11 14 15 16 17 18 20 21 21 21
9 7 5 2 1 2 1 1 2 4 6 3 4 6 3 7 10 14 16 6 10 17 17 14 11 12 12 13 14 11 18 19 18 25 30 28 26 25 27 28 29 29 29 27 25 24 23 23 23 23 23 24 24 24 23 22 21 20 18 16 14 15 13 11 12 12 12 13 13 13 13 12 12 11 10 10 9 9 9 8 8 7 7 7 8 8 9 10 12 14 15 16 18 20 20 20 20
9 7 3 2 3 1 2 2 4 6 5 6 6 8 8 12 16 14 14 3 10 11 18 22 23 19 7 7 14 13 15 17 22 25 27 27 26 24 25 28 29 30 28 27 25 24 23 23 23 23 23 23 24 23 23 22 21 20 18 16 14 15 12 11 12 12 12 12 12 12 12 11 11 10 10 10 9 9 9 8 8 7 6 7 6 7 9 10 11 13 14 15 17 19 19 19 19
9 6 3 1 1 0 2 3 5 5 4 6 7 11 13 16 20 14 12 5 4 6 16 23 25 16 5 7 10 12 15 15 22 24 24 25 25 23 23 27 30 30 28 26 25 24 23 22 22 22 23 23 23 23 22 22 21 20 18 15 15 14 12 11 12 13 13 12 12 12 11 11 10 10 11 11 10 9 9 9 8 7 6 6 5 5 7 8 10 12 13 14 16 18 18 18 19
8 4 2 2 0 1 2 4 5 5 5 7 8 13 17 21 24 17 10 2 5 8 12 14 16 13 9 17 15 18 21 19 25 25 24 23 22 21 23 27 29 30 28 26 25 24 23 22 22 22 22 22 22 22 22 22 21 20 17 15 14 13 12 12 12 13 13 14 14 14 13 12 11 11 11 11 10 9 9 9 9 9 8 7 5 5 5 6 8 10 12 14 16 18 18 17 18
6 3 1 1 1 2 4 4 5 4 6 8 9 16 19 23 26 18 10 4 12 9 8 13 19 18 16 17 15 23 28 27 29 27 24 22 21 21 25 28 28 29 28 27 26 25 24 22 22 21 22 22 22 23 23 22 22 20 17 15 14 13 12 12 12 13 14 15 16 15 14 13 12 12 11 10 9 9 9 9 10 10 10 9 7 6 6 6 6 8 11 14 15 16 16 16 17
4 3 2 0 1 3 4 4 5 5 8 8 11 21 23 27 26 15 8 6 15 14 15 20 19 21 19 12 15 26 31 30 30 30 26 24 23 24 28 27 26 27 27 27 27 26 25 23 22 21 22 22 22 23 23 22 21 19 16 15 14 13 13 13 13 14 15 16 16 15 14 13 12 12 11 10 9 9 9 9 10 11 11 10 9 8 7 7 6 6 8 11 14 15 15 17 18
2 2 2 1 2 4 4 3 6 7 10 9 12 22 24 29 21 9 6 4 13 16 15 16 17 22 15 6 19 29 31 31 31 32 28 27 27 27 26 26 26 26 26 27 27 27 25 24 22 22 22 22 22 22 22 21 20 19 17 16 15 14 14 13 13 14 15 16 16 15 14 12 11 11 10 9 9 9 9 9 10 11 11 11 10 9 8 7 7 6 7 9 11 13 15 17 17
4 1 3 1 3 4 3 3 6 6 9 8 11 18 14 18 11 6 3 7 7 7 8 19 27 23 11 8 23 26 29 33 32 31 29 28 28 26 25 27 28 27 26 26 26 26 25 25 24 23 23 22 23 22 22 21 20 18 17 16 15 15 14 13 13 14 14 15 15 14 12 11 10 10 9 8 8 9 9 10 9 10 10 10 10 9 8 7 7 6 7 7 8 11 14 16 17
8 3 3 2 2 2 3 4 5 4 7 8 14 14 5 3 6 7 10 11 7 7 13 28 34 22 14 14 18 22 29 35 33 30 28 29 27 25 26 28 30 29 27 26 26 25 25 25 25 25 24 23 23 22 21 20 19 18 17 16 15 15 14 14 14 14 13 13 13 12 11 11 10 9 8 7 7 8 9 10 10 11 11 11 9 8 7 6 6 5 6 6 6 8 11 14 16
12 7 2 1 3 4 3 4 4 4 7 8 15 15 8 3 11 15 16 11 8 15 19 25 24 15 16 14 14 25 31 35 33 28 27 28 26 25 27 30 31 29 27 26 25 26 26 26 26 25 25 24 23 23 21 20 19 18 17 16 15 14 14 14 14 14 13 12 12 11 11 10 9 8 7 7 7 8 9 10 10 11 11 11 9 8 7 6 5 5 5 5 6 7 9 13 15
13 9 1 1 3 5 3 3 3 4 7 7 15 12 5 5 13 14 15 20 14 14 14 11 8 9 20 19 23 33 34 34 31 27 26 27 28 27 27 30 31 28 27 26 26 27 26 26 26 25 25 24 23 23 21 20 18 17 16 15 15 14 14 14 14 14 13 12 12 11 10 9 8 7 7 7 8 8 9 9 9 10 10 9 9 8 7 6 6 5 5 5 5 6 7 11 14
12 7 2 2 4 6 3 3 3 4 7 10 18 12 3 5 15 14 17 27 21 15 15 13 10 19 27 25 32 37 34 33 29 27 28 29 29 28 29 31 31 29 28 27 27 27 26 25 25 25 25 24 23 22 21 20 18 17 17 15 14 14 14 14 14 14 13 13 12 11 10 9 9 8 8 8 8 7 7 8 8 9 8 7 7 7 7 7 6 5 5 5 5 6 8 11 14
9 3 5 4 5 6 3 3 5 5 7 10 19 17 2 4 12 15 15 20 23 22 22 25 25 27 30 30 35 35 33 32 28 28 29 29 29 29 32 33 32 30 29 28 27 27 25 25 24 25 25 24 23 22 22 21 19 18 17 16 15 15 14 14 14 14 13 13 12 11 10 9 8 8 7 7 7 6 6 7 7 7 6 5 5 5 6 6 6 5 5 5 6 8 10 12 13
8 3 4 5 7 5 2 5 8 6 9 12 22 23 6 3 7 13 8 10 20 19 17 30 36 32 32 34 33 31 31 29 26 28 28 28 29 30 33 33 32 30 30 29 28 26 25 25 24 25 25 24 24 22 22 21 20 19 18 17 16 16 16 15 14 14 12 12 11 10 9 9 8 8 7 6 6 5 6 6 6 6 5 4 4 4 5 5 5 5 5 6 8 9 10 12 13
10 7 3 7 8 4 8 12 12 12 14 13 19 20 8 8 3 12 9 7 14 14 13 24 31 33 35 34 33 31 29 26 25 27 28 28 28 30 32 32 32 30 29 28 27 26 24 24 24 24 24 24 24 22 21 20 19 19 18 18 17 17 16 15 14 12 12 12 12 10 10 9 9 8 7 6 5 4 4 5 5 6 5 5 4 4 4 4 4 4 6 7 9 10 11 12 13
6 7 5 8 6 4 14 17 15 18 20 17 12 11 9 13 6 13 15 10 5 12 22 27 32 35 37 35 33 30 27 26 26 28 29 28 29 31 31 31 30 29 28 28 27 26 25 24 24 24 24 24 23 22 20 19 18 19 19 18 17 17 16 15 14 13 13 12 12 11 10 9 8 8 7 6 4 4 4 4 4 4 5 5 5 5 4 4 4 4 6 8 9 10 11 12 13
4 6 9 12 8 5 16 20 19 23 25 19 11 8 9 13 6 11 14 10 6 16 28 34 40 42 39 37 33 29 28 28 27 30 29 28 29 30 30 30 28 27 27 27 26 25 25 24 24 24 24 24 21 20 19 18 18 19 18 17 17 16 16 15 14 14 13 12 12 11 10 8 7 7 6 5 5 4 4 4 3 3 3 4 4 5 4 4 4 5 6 8 9 9 9 10 10
6 8 12 18 16 9 17 23 21 24 22 15 13 11 8 11 8 2 8 12 17 24 32 36 42 43 40 37 34 31 30 28 28 30 29 28 28 27 29 28 26 26 27 27 26 25 25 25 24 24 24 23 21 19 18 18 18 18 18 17 16 16 16 15 14 14 14 13 12 11 10 8 7 6 6 5 4 3 3 2 1 2 2 2 2 4 5 5 5 6 6 6 7 7 6 6 7
7 7 10 19 20 14 21 26 25 27 21 17 22 15 3 4 6 3 4 15 23 27 34 38 40 39 36 34 34 32 30 29 29 28 27 26 25 26 27 26 26 26 26 27 26 24 24 25 25 24 23 23 21 19 18 17 17 17 17 17 16 16 15 15 14 14 14 12 11 10 8 8 7 6 5 5 3 2 2 1 1 2 2 1 1 3 5 6 6 6 6 5 5 6 5 4 5
7 9 12 17 20 19 25 25 26 26 19 20 23 14 7 6 3 3 9 21 29 31 35 37 38 36 32 32 32 32 30 29 30 28 26 26 26 26 26 26 27 26 26 27 25 23 23 25 25 24 23 22 21 20 18 17 17 18 18 17 17 15 15 14 14 14 12 11 10 9 7 6 6 6 6 4 3 2 2 3 3 3 3 2 2 3 4 6 6 6 6 5 5 5 5 4 4
6 11 14 14 16 21 25 23 24 22 15 16 12 9 13 7 1 4 15 29 34 34 37 38 38 36 32 31 31 32 32 31 31 29 26 28 27 25 26 27 27 26 25 26 24 22 23 25 24 24 23 22 22 21 19 18 18 18 18 17 16 15 15 14 13 12 10 10 10 9 7 5 6 7 5 5 4 4 4 4 3 4 4 3 2 2 2 5 6 5 5 5 5 4 4 5 4
11 13 15 14 16 20 21 20 25 22 13 14 8 5 11 4 2 3 13 29 36 36 38 39 37 35 33 30 31 32 33 32 30 30 28 28 28 26 27 28 28 28 26 26 25 22 23 25 24 23 23 23 22 20 20 19 18 17 17 17 16 15 15 13 11 11 10 9 9 8 6 4 6 7 5 5 5 5 5 5 4 4 5 4 2 2 2 4 5 4 5 5 5 5 4 5 5
15 15 14 14 16 16 15 14 20 17 7 15 15 6 6 1 2 8 18 25 35 39 38 38 37 34 32 29 32 33 32 30 29 31 31 29 30 28 28 28 28 27 26 26 25 23 24 25 24 23 23 23 21 20 20 19 18 18 17 16 15 14 12 11 10 10 9 8 7 7 6 4 5 5 5 5 5 5 6 6 5 5 6 5 4 3 3 4 5 4 5 5 5 5 5 5 4
14 11 7 10 11 9 10 9 15 13 4 14 15 4 5 1 3 11 26 28 31 38 36 35 35 35 32 30 33 33 30 29 29 31 31 29 28 26 27 28 25 25 25 26 25 24 24 25 25 24 23 22 20 19 20 19 19 18 17 15 14 13 11 10 10 9 9 8 7 7 6 6 5 6 6 6 6 6 7 7 6 6 5 5 4 4 3 4 4 4 5 5 5 5 5 4 3
11 8 3 6 7 5 7 6 11 9 6 14 12 3 7 5 10 13 25 32 30 32 32 30 32 34 33 32 34 33 30 30 30 29 29 27 25 25 27 27 24 23 25 26 25 24 24 25 24 24 24 22 19 19 19 19 18 17 16 14 13 12 11 10 10 10 10 9 8 7 7 7 7 7 8 7 7 7 7 7 6 5 5 5 4 3 3 3 4 4 4 4 4 4 4 3 3
5 5 3 3 3 5 7 4 4 5 5 14 12 3 7 7 12 17 20 32 31 28 29 28 29 33 33 33 33 32 31 30 29 28 27 24 24 27 27 26 23 23 25 26 24 23 24 24 24 24 23 22 20 19 19 18 17 16 15 13 13 13 11 10 11 11 10 10 10 9 9 9 9 9 8 7 7 8 8 7 5 4 4 4 3 2 2 3 3 4 4 4 4 4 3 3 3
1 2 4 3 3 5 8 6 4 5 6 9 9 3 6 7 13 20 19 29 31 25 28 28 29 32 32 30 30 30 31 29 27 26 24 22 24 28 27 26 25 24 26 26 26 25 24 23 24 25 23 22 21 19 18 18 17 16 14 13 14 13 11 11 11 10 10 10 9 9 9 9 9 9 7 7 7 8 8 6 4 4 3 3 3 2 3 3 3 3 4 4 4 3 3 3 2
1 2 4 4 4 4 6 6 6 9 5 3 6 4 4 6 12 22 20 23 30 24 25 28 29 31 30 28 28 31 31 29 27 25 22 22 25 28 28 27 25 24 25 26 27 26 24 24 24 24 24 23 20 19 18 18 18 17 14 14 13 12 11 10 10 9 8 8 7 7 7 6 6 6 6 6 6 8 7 5 4 4 2 2 1 2 2 2 3 3 3 4 4 3 3 2 2
4 1 3 5 4 4 4 6 7 6 6 4 5 4 5 7 10 20 21 19 30 25 25 28 29 31 31 28 29 31 31 30 29 27 24 25 27 28 29 26 24 24 25 26 26 25 25 25 25 24 23 23 21 20 19 18 17 16 15 14 13 11 11 10 10 9 8 8 7 6 6 6 7 7 7 6 6 7 6 3 3 3 2 2 1 1 1 2 2 2 3 3 4 3 3 2 2
3 2 2 4 4 4 5 6 5 3 4 5 6 5 8 11 8 15 21 18 29 28 29 32 30 31 29 27 29 31 32 32 31 28 26 27 28 29 29 27 25 24 25 26 25 25 26 25 24 24 23 24 24 23 21 19 18 17 16 14 13 12 11 11 10 9 9 8 7 7 7 7 8 8 8 7 6 6 5 4 3 3 3 3 2 2 2 2 2 2 3 3 4 4 3 3 2
4 4 3 4 4 5 6 8 5 2 3 6 8 7 10 15 10 12 17 13 25 27 27 27 25 27 27 26 29 31 33 33 30 27 26 27 28 29 31 29 26 25 23 24 24 25 27 26 25 24 23 25 26 26 24 22 20 18 17 16 15 14 12 11 10 8 7 7 8 8 8 8 8 8 6 6 6 5 4 4 4 4 4 4 3 3 2 2 3 4 4 5 4 4 4 4 3
6 5 5 5 5 6 7 8 7 3 4 7 10 10 12 15 12 13 13 9 19 22 20 20 23 27 28 29 30 31 32 32 29 27 26 28 28 30 32 28 25 25 24 22 23 25 28 28 27 26 25 25 26 27 26 24 22 21 19 18 17 15 13 12 10 7 5 5 7 7 7 6 6 6 5 5 6 5 5 4 4 5 5 4 5 4 4 4 3 4 5 5 5 4 5 5 5
7 6 7 7 5 8 10 8 7 3 4 8 10 10 14 15 12 14 11 10 13 22 24 22 25 26 28 31 30 31 33 32 30 26 25 28 29 30 32 27 23 24 25 23 23 27 28 27 28 27 26 27 27 26 26 25 24 23 21 19 17 14 12 10 8 6 4 4 5 6 7 6 5 5 5 5 6 6 6 5 5 5 6 6 5 5 5 4 3 3 4 4 5 5 6 7 7
7 5 5 6 5 7 10 7 6 3 4 8 9 10 14 15 13 14 10 8 13 30 36 32 32 29 28 32 33 35 35 33 30 24 25 29 30 30 30 26 22 20 24 26 26 29 29 28 29 29 28 28 27 26 25 25 25 24 21 18 17 14 12 9 7 5 4 3 4 5 7 6 6 6 5 6 6 7 7 6 5 5 6 6 6 6 6 5 4 4 4 4 4 6 7 8 7
5 5 3 6 6 4 6 5 5 4 4 7 8 8 10 9 8 11 7 6 15 32 40 38 38 36 35 37 39 42 38 32 29 25 28 30 30 30 29 26 23 23 26 29 30 31 30 30 31 30 30 28 27 25 25 26 26 24 20 18 16 14 12 10 8 7 6 4 2 5 7 6 6 5 5 6 6 6 6 7 6 5 6 6 5 6 6 6 6 5 4 4 4 5 7 8 8
5 7 7 8 7 6 7 7 6 7 6 4 4 5 6 5 5 9 5 5 13 23 30 29 28 30 33 34 35 36 34 32 31 29 30 31 29 29 27 25 26 26 28 29 30 32 31 31 32 32 31 29 27 26 27 28 27 25 22 20 18 17 15 13 12 11 9 7 5 6 7 6 5 4 4 5 5 5 6 6 7 6 5 5 5 5 5 5 6 6 5 4 5 5 6 7 9
6 7 10 10 8 7 8 7 5 6 7 3 5 5 5 5 3 7 4 5 10 14 19 20 21 25 28 29 28 28 29 31 31 31 31 31 29 29 27 27 27 26 27 27 29 30 31 32 34 33 33 31 28 28 28 29 28 26 25 23 23 22 20 17 14 13 12 10 8 8 7 5 4 3 2 1 1 6 7 7 8 8 7 7 6 7 6 6 6 6 5 5 5 6 6 6 9
6 6 9 10 7 5 7 6 3 1 4 4 4 6 3 5 2 5 2 6 10 10 10 14 23 27 27 28 27 27 29 31 30 29 29 29 29 29 28 27 27 26 27 28 28 30 31 33 34 33 34 33 30 29 29 28 27 27 26 24 23 22 20 17 14 13 12 10 10 10 8 6 5 3 2 3 2 7 10 9 9 9 8 8 7 7 7 7 7 6 6 6 7 7 7 6 8
6 6 7 6 3 5 6 5 3 2 5 5 3 4 3 2 4 4 2 8 10 10 9 10 18 24 25 27 29 31 34 34 33 29 27 28 29 27 27 27 26 27 29 29 30 31 31 32 32 32 34 34 31 30 29 28 28 27 25 23 21 19 17 15 14 13 11 9 11 12 10 8 6 4 3 3 4 8 10 10 9 9 8 8 7 6 6 6 6 6 6 7 8 8 7 7 7
7 7 7 5 5 7 5 5 5 3 2 6 6 3 3 2 5 3 3 8 8 10 12 12 16 23 27 29 33 35 37 37 35 32 29 29 29 28 28 29 28 28 28 30 32 33 31 30 32 33 35 34 31 30 29 27 27 26 24 22 20 18 15 14 14 13 11 9 10 10 10 10 8 7 8 8 7 7 8 9 9 7 7 6 5 5 6 6 6 6 6 6 7 7 7 7 8
7 6 4 3 3 5 4 4 3 2 1 5 6 2 3 3 6 4 4 4 6 6 8 12 17 24 30 35 39 39 39 38 35 33 31 30 28 27 28 31 32 30 29 30 33 34 32 31 33 34 34 34 32 30 29 27 26 25 23 23 22 20 18 17 16 14 12 11 10 11 12 12 10 10 10 10 9 8 6 7 7 7 6 5 4 4 6 8 8 7 7 6 6 7 7 7 7
4 3 2 2 2 1 2 3 2 2 2 7 7 2 4 1 5 2 1 1 8 9 8 10 16 23 31 38 42 41 41 39 35 33 33 30 26 25 28 32 34 33 31 31 33 34 33 33 34 35 34 34 34 32 30 28 27 26 25 24 23 22 20 19 17 15 14 13 12 12 12 11 10 10 10 9 9 9 8 7 7 7 6 4 3 5 7 8 8 8 8 7 7 8 8 9 9
4 2 2 1 4 4 3 3 3 4 4 7 6 4 6 2 4 4 5 3 10 16 14 14 14 20 29 35 38 41 41 39 36 35 32 29 27 26 30 35 35 35 34 34 34 34 34 34 35 36 36 36 35 34 32 30 29 27 26 25 23 21 20 18 16 15 14 14 14 14 12 9 9 10 10 9 8 9 10 9 8 7 7 5 4 6 7 7 8 8 7 7 8 9 10 11 12
3 1 3 3 2 2 2 3 0 3 4 6 5 4 4 3 4 4 9 7 8 16 18 21 20 23 29 32 36 39 40 40 37 34 31 28 28 30 34 37 37 37 37 36 35 34 34 34 35 37 38 38 36 35 32 30 29 27 26 26 23 20 18 15 14 13 14 14 14 14 13 10 11 11 10 9 8 9 10 10 9 8 6 5 4 6 7 8 8 8 8 9 10 11 13 15 15
3 3 4 4 2 1 1 3 1 1 4 6 4 2 1 2 3 6 10 5 10 19 19 22 25 28 31 33 37 39 40 41 37 33 30 28 29 33 36 37 38 38 38 37 35 34 34 34 36 38 38 37 35 33 31 29 28 27 27 25 22 19 16 14 13 13 14 14 13 13 12 10 12 13 12 10 8 8 9 10 10 9 7 5 3 6 8 9 9 10 11 12 13 13 14 15 16
3 4 5 5 4 4 2 3 2 2 3 4 3 1 1 1 2 7 6 8 13 23 26 25 25 26 29 32 35 39 40 41 37 33 30 28 31 36 36 36 38 39 39 37 35 35 35 35 36 38 38 37 34 32 31 29 27 28 27 25 21 18 15 13 13 13 13 13 12 12 10 9 9 12 13 12 10 8 8 10 12 10 8 5 4 6 9 11 11 12 14 14 14 14 14 14 14
4 2 5 2 5 5 2 2 5 4 1 2 1 1 1 2 1 6 7 12 12 18 24 27 27 27 27 27 30 34 37 39 37 32 30 30 33 36 37 36 37 39 38 36 35 35 36 37 37 38 38 36 34 33 31 29 29 29 26 23 21 18 15 13 13 13 13 13 12 10 8 8 7 7 10 11 11 9 9 11 14 12 9 6 5 7 10 12 13 15 16 16 15 14 14 13 13
2 1 3 4 4 7 3 1 0 3 2 2 0 2 2 2 4 8 8 12 10 11 15 18 24 28 26 24 26 29 32 36 36 32 31 33 35 36 36 36 37 37 36 34 34 35 36 37 37 37 37 35 34 33 31 30 31 28 25 22 21 18 15 13 13 14 14 13 11 9 7 6 4 5 8 10 10 11 11 13 14 12 10 7 7 9 11 13 13 15 16 16 15 14 13 13 13
3 1 4 2 2 4 3 1 3 4 2 4 1 4 1 2 1 5 4 11 8 6 9 12 15 19 19 20 24 27 28 30 31 31 32 33 34 35 35 36 34 33 33 33 34 35 35 35 35 36 36 34 33 32 30 31 30 26 25 23 20 17 14 12 13 14 14 13 11 10 8 5 3 3 7 9 11 12 12 13 13 12 11 9 9 11 12 13 14 15 15 14 13 12 11 11 11
4 3 2 3 2 0 1 2 1 2 2 2 4 2 0 2 2 4 2 9 9 7 8 10 10 12 15 17 19 20 22 24 27 29 30 31 33 33 32 31 26 24 26 28 30 32 33 33 33 34 34 33 32 31 30 30 28 25 26 24 19 16 14 12 13 15 14 13 12 11 8 6 4 3 6 9 10 11 12 12 12 12 11 10 10 12 13 15 16 16 16 15 14 13 12 12 11
2 2 2 2 3 3 2 2 3 3 3 1 2 2 1 1 2 5 4 5 9 10 9 8 8 11 14 15 15 16 17 19 21 21 19 19 22 24 24 22 18 16 19 22 24 26 27 28 29 29 29 30 31 31 30 28 26 26 25 22 18 17 15 14 14 15 15 14 13 12 9 7 6 3 5 8 10 11 12 13 12 13 13 13 13 14 16 18 19 18 17 17 16 15 15 15 14
4 4 3 2 1 2 2 1 2 4 4 3 2 1 3 3 3 3 1 2 2 9 10 7 8 10 11 13 14 14 13 12 12 11 10 9 11 13 15 14 12 13 15 17 19 20 20 22 23 22 23 25 27 29 29 27 25 25 24 20 17 16 16 15 14 15 15 14 14 12 10 9 7 4 6 9 10 12 13 13 14 15 16 16 16 18 19 19 19 18 17 16 15 14 13 14 14
4 3 0 1 2 4 3 1 2 2 4 4 5 3 4 4 3 3 5 5 5 3 8 8 10 12 11 10 11 10 10 10 11 12 14 15 12 9 8 8 8 8 10 14 17 17 17 17 16 16 18 20 24 26 26 26 25 24 22 19 17 16 16 16 15 15 15 14 15 13 11 10 7 5 7 9 11 13 14 14 16 18 19 19 19 20 20 19 18 16 15 14 13 13 12 12 12
Wind_Direction
151 144 143 140 145 139 151 150 116 330 84 249 249 233 254 238 232 275 282 298 322 338 44 78 89 110 111 110 112 89 55 58 187 131 146 147 153 164 163 160 161 158 154 151 152 153 153 153 154 154 152 152 151 148 144 142 142 139 133 129 128 128 124 123 124 122 122 122 123 126 127 128 129 130 128 127 125 122 120 123 126 126 127 126 125 124 115 107 101 99 101 101 106 109 110 108 103
150 149 146 142 146 140 155 138 90 350 59 277 250 187 254 278 236 256 258 251 199 128 87 87 89 93 104 108 104 78 51 63 116 115 124 147 156 162 163 163 162 157 154 152 151 152 153 154 155 155 154 152 151 148 145 144 144 142 137 132 131 132 130 129 129 127 126 124 124 125 126 125 122 121 121 122 122 119 115 115 119 120 125 129 129 127 122 113 107 103 103 105 110 111 110 106 102
150 151 150 145 141 135 128 107 94 118 173 254 252 222 268 308 252 255 244 246 208 146 110 87 83 79 98 85 68 80 83 95 113 117 126 152 157 156 163 163 160 157 155 151 149 151 153 155 156 155 154 152 151 149 147 146 146 145 140 134 133 136 137 135 135 132 130 128 126 125 125 125 123 121 122 124 124 123 115 109 109 114 124 135 139 135 131 122 112 108 107 110 113 113 110 107 104
150 152 154 138 123 119 89 98 143 142 208 236 273 248 235 251 253 260 259 262 220 163 148 78 67 43 79 85 80 91 111 116 120 123 132 157 158 153 160 160 159 156 152 149 148 149 152 154 155 155 154 153 152 150 149 149 148 147 143 137 136 141 143 139 139 138 135 132 128 126 126 126 125 125 127 128 126 124 117 112 111 115 125 139 147 145 139 128 116 112 113 113 115 114 112 111 108
153 153 153 130 107 39 87 149 142 170 217 199 262 246 215 245 268 286 288 283 194 168 146 104 91 62 74 79 77 95 123 123 127 130 135 151 150 149 156 158 157 154 150 147 145 148 151 153 155 156 154 154 152 152 151 150 149 148 145 140 140 147 148 141 142 143 140 136 131 130 129 128 128 128 129 130 128 126 123 122 120 121 126 135 146 150 144 133 123 118 118 116 115 115 116 115 111
155 153 155 157 262 316 91 221 220 227 232 201 252 270 299 303 291 290 294 322 131 153 133 112 114 102 75 65 65 100 139 135 139 137 133 138 140 147 153 156 156 151 148 144 145 148 149 152 155 157 155 155 153 153 152 150 149 148 148 145 147 153 151 144 144 145 142 138 135 134 133 132 131 130 129 130 131 131 133 130 126 125 127 129 139 149 148 140 130 123 121 119 116 116 118 117 114
161 162 177 222 273 283 128 214 233 248 245 218 247 281 297 291 283 288 291 288 112 126 122 120 118 105 76 83 71 92 147 150 142 136 131 134 139 146 151 156 155 148 145 144 145 146 148 152 155 157 155 154 153 153 152 150 148 149 151 151 153 156 156 148 145 143 140 138 137 137 135 135 134 133 134 131 130 133 136 135 130 129 129 130 137 149 153 150 140 130 125 123 119 118 119 118 117
165 163 165 132 317 334 167 235 239 242 238 227 242 264 269 275 282 292 284 248 128 110 122 128 117 94 61 103 80 104 141 147 137 133 129 132 137 143 151 157 153 147 145 144 145 146 149 153 156 156 154 152 151 151 150 148 149 152 155 155 156 158 158 149 142 139 139 139 137 135 130 129 130 133 137 133 128 130 133 133 126 121 121 125 133 142 150 154 150 140 132 127 122 120 121 121 119
173 165 141 124 252 307 252 265 252 246 249 249 252 259 265 272 279 277 265 261 116 115 130 146 117 101 96 93 92 116 129 133 130 129 130 132 133 139 152 157 153 147 144 145 146 147 149 153 155 153 151 150 150 149 149 150 152 155 156 156 158 159 155 146 141 140 142 142 138 133 127 124 123 126 133 133 128 124 125 125 120 113 110 112 120 125 131 142 151 149 139 131 126 124 125 124 123
183 198 216 116 124 281 273 262 249 267 266 260 260 259 264 266 268 255 236 144 134 122 116 127 109 113 113 95 100 119 126 130 129 130 133 128 124 136 149 153 152 147 145 146 146 148 151 153 153 150 149 148 149 150 150 152 153 156 157 158 160 158 152 146 144 144 145 143 140 135 131 127 124 123 126 128 124 120 119 118 117 111 108 106 107 113 114 118 134 149 146 139 133 131 128 128 129
188 221 214 63 116 240 251 256 264 283 277 280 269 261 256 251 259 247 213 142 137 130 120 113 104 113 107 93 112 124 131 133 132 132 130 121 120 134 144 148 151 149 148 148 149 151 151 151 150 149 148 149 150 151 153 154 154 157 159 161 160 157 152 151 150 148 149 146 143 139 135 132 130 127 123 121 120 118 115 113 114 111 109 106 103 107 107 103 109 131 149 149 143 136 131 132 134
193 243 144 134 195 215 233 254 278 289 286 289 273 275 260 237 239 225 191 129 137 139 135 124 125 120 100 89 123 129 133 133 134 134 133 125 123 129 139 150 153 152 152 151 152 152 150 149 149 148 149 150 152 153 154 154 156 160 162 163 161 158 155 156 156 152 153 151 146 141 139 138 134 131 124 119 117 116 114 113 112 110 109 107 106 109 109 104 105 115 137 153 153 145 136 135 137
208 244 111 157 204 209 261 266 283 297 290 283 269 291 274 220 204 187 119 63 114 140 142 141 138 121 95 119 128 131 132 136 139 141 140 130 128 132 141 152 154 155 155 154 152 151 150 149 149 150 151 153 155 154 156 157 160 164 164 164 161 160 159 161 159 157 158 153 147 142 143 144 140 134 124 118 118 119 116 114 114 109 106 106 108 113 115 112 111 111 119 141 158 157 146 139 141
210 219 144 242 261 252 270 258 277 287 282 282 282 305 341 158 114 108 91 55 30 99 133 143 136 114 110 129 128 130 131 141 145 147 143 131 135 140 144 151 155 157 156 156 153 152 153 153 153 153 155 155 157 157 159 161 163 166 165 164 163 162 164 164 162 163 163 154 149 147 149 150 144 137 124 121 122 122 119 114 112 108 102 100 103 107 111 113 114 115 114 122 141 156 157 147 146
215 219 171 239 306 290 241 231 276 277 277 282 292 313 350 25 102 105 106 93 61 110 129 138 133 119 144 150 136 135 137 146 148 149 142 134 143 143 146 152 156 158 156 157 155 157 158 157 157 157 158 156 158 160 161 163 166 168 166 166 165 166 167 166 165 165 164 157 157 156 156 153 143 135 126 129 127 123 122 119 114 108 101 98 97 97 99 104 112 124 127 125 125 142 158 155 153
229 226 142 248 267 275 230 228 272 260 275 285 301 321 348 6 99 108 117 122 113 119 120 128 150 148 150 145 139 142 145 150 149 150 145 144 150 145 148 154 157 157 157 160 160 162 162 162 161 160 161 158 161 162 162 165 167 170 168 168 167 169 170 169 168 165 166 166 167 166 162 155 146 142 138 139 132 126 124 121 117 109 100 95 95 94 93 95 104 119 135 138 130 133 149 154 154
243 231 208 249 244 256 230 215 242 246 283 298 310 333 56 46 87 97 108 117 112 103 90 93 122 131 139 142 143 146 148 152 151 149 148 152 154 148 152 155 157 159 160 164 165 165 165 166 165 162 162 163 165 164 166 168 169 171 169 169 169 171 172 172 171 169 172 173 173 172 166 159 154 153 149 145 137 130 125 121 117 108 98 93 95 93 93 93 96 104 122 136 132 131 137 142 148
237 208 201 228 239 241 167 186 249 266 298 306 312 323 23 94 105 104 91 99 93 86 86 96 107 120 138 146 145 148 150 153 154 153 153 157 157 151 152 155 159 161 164 168 168 169 169 171 169 166 166 167 169 168 169 172 172 171 169 171 171 172 175 175 174 174 176 175 175 175 170 162 159 159 154 150 143 135 127 121 115 108 101 100 102 96 95 96 99 103 113 127 130 134 137 138 142
209 180 191 222 231 235 143 235 261 283 307 308 306 305 309 65 135 128 97 92 92 83 85 101 108 119 137 144 146 154 157 157 161 161 161 163 161 154 152 155 161 165 168 170 171 172 173 174 173 170 170 172 174 174 174 175 174 170 172 176 176 177 178 179 178 176 175 174 177 177 172 164 162 160 153 149 144 140 132 127 122 117 120 128 130 113 106 104 104 111 117 126 132 138 143 141 139
207 204 202 237 237 270 277 265 275 289 294 292 297 300 325 3 49 130 121 112 106 108 115 113 116 126 135 142 149 156 160 165 169 166 167 168 162 156 154 156 164 168 170 172 173 174 177 178 176 174 174 176 177 177 176 176 174 174 177 180 182 182 181 181 179 175 173 176 178 178 174 168 169 159 147 147 147 148 139 138 133 127 138 148 148 130 119 114 111 119 128 139 140 141 142 140 140
209 197 208 245 248 283 269 269 280 283 282 277 293 323 342 342 10 131 132 113 107 140 141 137 136 139 140 145 153 157 164 170 171 168 168 169 161 155 156 160 165 169 171 174 175 176 180 182 179 178 178 180 179 178 177 175 177 179 182 184 185 185 182 182 178 175 178 180 180 179 178 173 171 156 146 155 158 165 154 143 129 121 133 140 147 146 138 128 126 132 140 150 149 146 142 139 141
250 240 242 252 253 260 268 271 273 272 275 278 292 326 319 320 357 143 153 135 168 165 150 148 148 152 152 153 157 160 167 170 170 168 168 169 164 159 160 163 166 169 173 175 177 178 181 185 184 182 182 182 180 179 180 179 182 183 184 186 187 186 183 182 180 179 182 183 182 182 181 175 171 162 162 172 175 175 156 134 114 111 118 117 135 151 158 153 150 152 153 157 155 155 151 149 150
244 270 260 260 257 247 264 267 267 268 271 278 286 290 296 319 352 132 184 156 161 163 153 150 152 157 159 160 160 162 168 167 166 169 170 170 168 166 164 165 167 171 175 176 179 181 183 187 187 186 184 183 181 182 185 185 186 186 186 187 187 186 183 184 184 183 184 186 186 185 183 177 176 179 183 185 184 168 140 128 123 146 132 101 130 152 166 173 173 168 167 170 164 166 166 167 169
224 261 261 263 261 253 260 261 262 263 266 278 279 277 274 317 338 37 127 137 147 153 148 149 152 155 157 159 163 168 169 164 165 169 168 170 170 168 166 166 169 172 175 176 181 183 185 188 189 189 185 184 183 183 189 191 190 188 189 189 187 186 185 187 187 186 188 189 189 190 188 183 184 196 202 200 193 160 150 197 250 206 174 153 181 172 174 180 185 181 178 182 178 180 186 185 189
227 246 257 263 264 261 263 260 257 256 263 276 272 263 244 249 271 96 118 130 141 148 146 148 150 151 154 158 166 171 170 167 169 167 165 170 169 167 168 168 171 174 177 177 181 183 185 190 191 189 185 186 186 185 190 192 192 190 189 189 186 186 186 187 187 188 193 194 196 198 198 196 196 203 208 209 205 205 215 235 247 218 203 194 194 197 187 184 191 194 191 194 195 192 199 202 207
232 239 251 258 263 264 264 262 257 255 257 263 262 263 262 250 159 129 140 140 145 150 149 151 149 151 156 159 166 171 172 172 172 169 166 167 167 168 171 171 174 178 180 180 181 182 187 191 190 188 187 189 188 186 187 189 191 189 186 187 186 186 184 185 187 190 196 201 204 205 210 211 201 204 216 221 216 227 233 237 245 232 226 215 202 218 196 190 196 197 199 207 213 213 215 214 220
263 261 264 263 265 268 268 264 260 259 253 243 232 264 270 240 125 185 151 146 149 150 150 153 152 154 160 161 164 171 175 172 170 170 164 163 168 173 173 173 178 182 183 182 181 184 187 190 189 187 188 190 189 186 183 185 188 186 184 185 184 185 184 185 187 190 197 205 212 217 227 220 201 211 236 240 232 241 246 253 260 246 236 233 246 265 221 205 204 198 201 211 223 235 238 230 232
279 280 279 276 276 279 278 271 261 261 246 226 213 216 273 300 137 179 163 154 152 151 152 156 157 157 163 161 162 172 175 168 167 170 166 165 170 175 175 175 180 183 183 182 183 186 186 188 189 188 188 187 187 186 179 181 184 183 185 184 183 186 186 185 184 188 193 204 220 229 239 234 219 231 248 254 252 250 254 262 263 250 239 245 267 261 232 226 221 208 205 209 219 233 241 240 238
304 300 283 281 291 288 274 272 265 264 227 216 207 220 288 270 250 187 164 160 154 153 155 159 161 161 164 162 164 172 173 165 166 170 169 169 172 175 176 178 183 181 182 184 183 185 185 187 188 186 186 185 186 185 177 177 179 179 184 185 185 185 184 185 186 187 194 204 219 231 239 241 243 249 252 260 254 247 255 263 263 256 243 244 252 241 227 228 221 211 206 208 213 222 234 243 231
315 309 270 281 309 297 261 252 261 261 210 202 189 230 278 246 254 223 171 163 156 154 158 163 164 163 164 164 168 172 170 166 167 169 170 171 174 176 176 180 184 179 179 182 181 185 187 186 187 184 182 181 185 186 180 177 176 177 180 182 182 182 181 186 189 190 198 208 216 224 229 231 237 243 248 250 244 244 254 256 256 253 243 236 233 230 231 222 212 211 213 215 214 212 227 248 225
312 310 305 283 277 278 276 260 262 279 226 195 172 198 255 253 253 240 191 168 161 157 161 165 164 164 166 168 169 168 167 168 171 171 171 173 174 175 177 178 179 177 177 178 180 187 189 184 182 181 175 175 184 187 182 177 175 174 174 176 178 178 182 190 192 193 200 209 216 222 224 223 225 233 239 237 235 240 245 247 243 240 237 223 212 212 214 213 216 214 217 221 221 216 224 244 226
314 292 306 299 238 273 290 278 235 250 256 192 168 211 244 257 250 239 213 177 168 160 160 165 165 166 169 170 168 162 163 167 172 173 171 175 175 175 178 176 174 178 178 177 179 186 189 182 180 180 170 169 183 187 180 174 172 174 175 178 179 180 184 190 193 196 204 211 216 221 220 219 223 230 234 226 229 233 231 229 221 220 221 206 198 199 196 206 222 211 208 214 213 212 214 217 201
326 191 245 273 266 289 300 287 241 213 241 216 184 210 230 262 248 239 230 185 168 158 159 165 165 167 170 171 165 158 160 165 171 174 174 179 177 175 177 176 175 178 178 176 176 183 188 185 184 182 169 166 178 182 176 173 172 175 179 180 182 185 187 188 189 190 199 204 207 213 210 205 207 217 225 224 225 224 220 209 196 195 185 190 206 208 199 203 211 194 189 202 201 194 195 193 177
289 299 239 262 251 264 285 293 284 220 217 246 224 221 225 250 244 235 235 183 160 157 160 167 168 169 171 169 161 158 160 164 170 174 175 180 176 172 176 178 176 175 174 173 173 180 188 189 185 180 171 166 171 177 176 176 176 176 179 181 182 185 184 182 182 181 184 186 185 186 188 183 183 193 207 216 212 204 202 188 175 170 156 176 212 214 207 207 209 186 172 188 194 187 178 170 168
223 255 249 280 276 267 267 268 289 258 240 249 236 243 239 250 252 233 236 188 158 161 166 169 170 167 166 164 159 158 161 168 174 173 173 177 174 171 175 177 175 173 171 171 172 177 185 188 184 179 174 167 168 174 175 176 178 178 179 179 176 177 175 171 172 172 173 174 168 164 171 176 175 181 191 192 184 177 174 169 171 170 167 179 199 214 210 202 199 185 179 187 184 171 163 159 158
216 249 225 249 278 271 262 257 261 224 253 260 236 233 234 242 245 237 244 196 156 160 164 165 163 160 161 161 159 159 164 172 172 168 171 173 170 170 171 171 173 172 168 171 173 176 183 186 183 182 175 167 167 170 174 177 177 178 178 173 170 172 167 165 166 163 161 164 164 164 170 172 170 175 176 166 157 154 156 164 173 179 176 175 186 196 191 188 182 181 187 187 178 163 162 166 161
249 279 267 257 266 268 267 267 268 207 198 252 236 227 234 234 235 238 233 159 139 147 152 159 159 160 162 160 160 162 167 171 166 168 173 167 164 167 167 167 172 172 167 173 180 179 184 185 183 182 175 170 171 171 174 177 176 175 175 170 170 171 168 169 170 164 164 173 176 182 183 174 168 169 164 152 150 146 139 140 157 168 166 169 180 181 178 188 186 184 190 186 180 168 162 166 163
247 259 269 274 266 267 270 267 271 216 178 255 238 219 239 231 227 239 210 136 137 151 155 167 166 162 163 159 158 163 168 170 169 172 168 161 163 166 167 169 175 175 169 175 185 185 188 189 184 182 176 175 176 176 176 176 175 174 172 171 172 171 169 171 171 166 169 169 170 181 178 163 159 161 155 150 148 146 139 135 142 149 155 168 177 170 173 193 188 173 181 182 176 166 158 164 168
243 247 263 273 264 272 277 268 262 202 167 266 243 207 236 231 221 237 210 152 161 163 164 171 166 161 161 158 158 163 167 169 172 169 160 161 167 169 171 173 177 178 170 170 180 186 191 190 185 182 179 177 178 179 177 174 170 167 168 171 171 169 166 168 173 175 179 167 143 147 150 151 159 158 149 143 140 143 145 141 140 143 152 165 170 164 167 180 174 162 169 164 156 154 155 160 168
238 239 250 261 256 267 284 285 287 272 227 245 230 204 233 237 229 249 233 164 168 170 170 171 167 163 163 163 164 165 163 163 167 162 158 163 170 173 175 176 174 170 164 166 175 183 188 189 186 182 180 179 178 177 174 169 164 161 165 168 169 170 168 173 182 186 198 214 181 145 146 155 163 158 151 146 141 143 146 141 141 145 150 156 157 153 155 162 159 158 161 151 145 147 155 159 161
245 228 227 245 249 240 253 278 307 318 298 242 167 179 242 258 228 251 268 130 159 171 168 166 164 161 161 162 162 160 158 159 161 160 163 167 171 174 175 174 173 169 167 170 175 180 186 188 186 182 180 180 180 177 171 166 163 162 165 167 169 172 173 180 186 185 194 212 205 171 157 156 160 161 151 142 142 154 153 144 143 145 149 149 141 138 138 140 144 152 159 151 146 145 154 166 163
260 235 221 222 223 231 250 285 331 354 323 307 110 145 250 300 223 236 285 98 144 167 161 154 152 154 155 152 153 154 153 157 161 164 167 169 171 173 173 173 174 175 175 174 174 178 182 184 183 182 182 183 182 178 172 169 167 167 170 172 174 175 175 184 194 192 189 191 187 171 160 158 161 164 146 107 172 163 151 140 140 141 145 146 141 148 148 136 134 146 157 155 154 151 155 171 170
255 236 210 195 188 236 273 302 340 23 281 282 101 137 218 318 305 225 247 103 135 157 154 147 150 153 151 146 147 149 151 155 159 163 165 167 171 170 171 175 178 178 176 173 173 176 180 181 182 183 184 185 184 179 175 174 173 172 174 177 179 178 179 184 190 185 174 169 169 168 171 171 174 199 227 276 236 157 143 132 130 132 135 135 137 150 157 149 141 138 145 156 165 170 166 171 176
243 235 205 191 201 258 274 291 281 232 264 300 9 103 121 311 274 226 153 99 122 146 146 142 146 147 143 141 143 146 153 158 159 161 164 169 172 168 169 179 183 180 176 174 173 175 180 184 183 183 184 185 182 178 178 177 175 175 177 180 181 181 182 179 171 166 161 160 164 169 179 180 183 200 194 188 166 149 143 134 129 127 123 121 128 142 145 145 147 141 145 156 164 175 169 165 178
237 224 205 211 233 244 254 272 273 281 304 307 317 42 85 276 273 298 52 88 116 145 148 145 144 143 139 138 142 149 156 161 165 169 172 177 177 171 169 177 183 183 179 176 174 174 179 185 186 184 185 186 181 180 183 180 178 179 179 182 181 182 187 177 164 164 165 162 166 173 179 177 170 149 128 131 146 153 150 144 143 137 122 109 117 144 141 136 147 145 143 148 156 166 160 155 169
232 204 196 214 229 240 255 249 254 347 319 263 280 359 80 274 287 330 17 87 130 141 140 145 143 140 138 139 145 152 157 162 170 175 178 183 182 175 170 172 180 186 184 179 176 175 176 183 187 186 186 186 182 186 188 183 182 184 183 185 186 185 186 177 167 169 172 171 176 175 171 171 163 142 129 135 153 166 163 155 156 146 129 111 105 136 140 134 140 141 138 144 151 152 146 148 159
199 149 181 274 298 326 300 259 141 98 253 253 251 200 120 281 293 285 300 141 141 131 129 143 139 135 138 143 149 155 158 164 173 178 181 185 182 177 173 174 180 185 185 183 179 177 177 181 187 188 186 185 185 189 188 183 185 187 187 190 192 188 183 178 171 171 176 180 182 174 167 169 165 154 152 153 159 173 180 174 164 152 144 138 119 132 142 139 138 138 136 138 143 141 137 141 147
143 125 124 269 314 14 13 331 75 127 243 260 237 167 117 149 272 273 293 268 152 144 148 152 143 139 143 147 152 157 161 167 174 179 184 185 182 183 179 178 181 184 186 187 183 181 180 180 183 187 187 186 188 189 185 184 188 190 192 195 196 189 181 176 174 175 181 185 182 174 170 177 177 169 170 173 166 171 184 188 177 166 162 162 154 148 148 143 137 134 131 132 137 137 134 134 135
131 149 91 106 290 357 359 301 212 179 238 256 230 143 112 211 246 308 321 305 166 153 156 153 147 147 148 150 153 158 162 168 174 179 184 186 185 186 184 181 183 185 187 188 185 183 183 182 182 185 188 188 189 188 186 187 191 194 197 198 195 186 178 174 175 179 184 186 182 177 180 189 192 187 181 183 176 165 179 194 190 184 185 186 179 162 150 141 136 133 132 135 139 138 135 134 133
158 182 139 141 177 124 281 270 282 239 238 265 265 158 185 265 305 329 333 340 140 139 137 139 144 148 150 151 154 158 163 168 174 178 178 182 188 188 187 185 185 186 188 188 186 185 186 185 183 185 189 189 188 188 188 190 194 197 199 197 190 180 175 175 179 184 186 187 185 184 187 189 193 198 196 194 192 174 174 191 194 192 197 196 168 156 152 145 142 142 142 147 147 144 141 140 139
201 192 146 151 162 151 214 225 198 231 245 292 308 144 173 163 291 309 354 56 111 125 124 130 140 145 145 150 156 162 168 173 177 178 176 180 187 189 190 190 188 189 189 187 187 188 189 188 185 186 189 189 188 189 190 194 196 195 195 194 187 180 178 176 180 187 189 189 185 180 178 173 179 195 201 203 204 197 187 190 194 195 197 189 141 139 151 149 148 147 149 154 152 148 148 147 145
249 167 110 169 190 157 158 177 173 177 157 336 351 106 321 144 279 327 55 78 86 108 120 130 140 145 147 154 162 167 175 178 177 178 181 183 187 190 194 194 193 193 190 186 188 191 191 189 188 188 189 189 188 189 192 194 193 191 192 190 185 183 179 175 178 185 188 186 178 172 169 164 157 163 182 195 199 200 195 188 191 194 191 175 132 131 144 147 151 153 156 158 155 154 156 153 150
261 108 154 215 179 132 126 238 62 89 121 279 24 106 335 45 14 347 53 87 82 96 116 131 144 153 157 163 170 174 181 182 179 179 184 185 186 192 196 197 197 196 192 187 189 192 191 190 190 189 190 190 190 191 191 192 191 190 190 188 186 184 179 177 181 181 181 178 174 178 176 164 142 129 155 172 174 174 174 177 185 188 184 171 139 132 133 136 144 151 158 162 159 160 162 158 158
127 207 211 205 69 89 112 153 14 51 145 264 9 117 183 78 42 311 46 94 95 106 124 134 149 157 160 165 174 179 184 183 181 183 185 186 189 193 197 199 200 199 196 191 191 193 192 192 191 190 191 192 192 192 192 191 191 190 187 186 186 184 179 180 183 178 175 174 177 184 182 171 158 142 156 161 160 161 162 168 176 179 180 173 152 139 133 131 135 140 147 152 151 152 152 151 159
155 197 189 118 97 280 91 119 132 105 154 281 352 51 92 100 155 248 184 125 127 126 130 141 155 160 160 166 174 179 182 183 183 185 187 190 193 196 199 201 201 201 200 198 197 197 195 193 193 193 194 195 196 195 195 195 193 189 187 187 186 183 180 181 183 182 180 179 181 183 183 190 199 174 162 161 159 161 163 165 171 176 180 176 161 148 137 133 134 134 135 135 133 132 128 126 134
358 22 3 92 137 163 174 151 154 148 149 227 336 22 314 249 212 239 230 149 138 142 145 153 160 163 162 162 167 174 179 183 183 182 184 191 196 199 201 202 203 203 202 202 202 201 199 198 198 198 197 199 200 200 199 196 193 189 187 185 184 182 182 183 185 186 184 182 183 185 188 201 211 194 165 161 160 163 165 166 168 169 168 163 155 145 137 133 132 132 130 128 127 126 121 117 118
6 36 15 332 56 111 142 161 134 129 139 169 168 181 256 269 284 263 220 41 146 155 148 145 143 144 152 156 159 165 167 168 169 166 168 179 191 201 205 208 213 212 207 204 203 203 203 203 202 203 202 201 203 204 201 195 191 189 185 181 179 179 179 182 185 187 186 184 185 188 195 206 213 198 167 161 160 162 163 162 159 154 151 148 145 141 138 135 133 131 130 128 128 126 121 115 117
62 67 76 244 162 126 125 246 283 105 128 160 157 177 258 281 322 358 65 35 318 197 144 130 119 114 123 139 145 150 152 153 163 174 181 185 184 187 201 215 222 214 205 204 202 202 206 206 202 202 202 202 207 207 200 195 191 186 179 172 169 171 174 178 184 188 189 189 190 194 200 209 212 191 167 163 161 161 161 160 153 148 146 145 145 145 143 140 139 138 136 135 133 132 129 124 125